Temperature
0 0 -0 -0 -0 -0 -0 -0 -0 -0 -0 0 0 0 0 1 0 1 1 1 1 1 1 1 1 1 1 1 1 1 1 1 1 1 1 1 1 1 1 1 1 1 2
-0 -1 -1 -1 -1 -1 -1 -1 -1 -1 -1 -1 -0 -0 -0 0 0 0 0 0 0 0 0 0 0 0 0 0 0 0 0 0 0 0 0 0 0 0 0 0 1 1 1
-1 -1 -1 -1 -1 -1 -1 -1 -1 -1 -1 -1 -1 -1 -1 -1 -0 -0 -0 -0 -0 -0 -0 -0 -0 -0 -0 -0 -0 -0 -0 -0 -0 -0 -0 -0 -0 -0 -0 -0 -0 0 0
-1 -1 -1 -2 -2 -2 -2 -2 -2 -2 -2 -2 -1 -1 -1 -1 -1 -1 -1 -1 -1 -1 -1 -1 -1 -1 -1 -1 -1 -1 -1 -1 -1 -1 -1 -1 -1 -1 -1 -1 -1 -0 -0
-2 -2 -2 -2 -2 -2 -2 -2 -2 -2 -2 -2 -2 -2 -2 -2 -2 -2 -2 -2 -2 -2 -2 -1 -1 -1 -1 -1 -1 -1 -1 -2 -2 -2 -2 -1 -1 -1 -1 -1 -1 -1 -1
-3 -3 -3 -3 -3 -3 -3 -3 -3 -3 -3 -3 -3 -3 -2 -2 -3 -3 -3 -3 -3 -3 -2 -2 -2 -2 -2 -2 -2 -2 -2 -2 -2 -3 -2 -2 -2 -2 -2 -2 -2 -2 -2
-3 -3 -3 -3 -3 -3 -3 -3 -3 -3 -3 -3 -3 -3 -3 -3 -3 -3 -4 -4 -4 -3 -3 -3 -3 -3 -3 -3 -3 -3 -3 -3 -3 -3 -3 -3 -3 -3 -3 -3 -3 -3 -3
-4 -4 -4 -4 -4 -4 -4 -4 -4 -4 -4 -4 -4 -4 -4 -4 -4 -4 -4 -4 -4 -4 -4 -4 -4 -4 -3 -4 -4 -4 -3 -3 -4 -4 -4 -4 -4 -4 -4 -4 -4 -4 -4
-5 -5 -5 -5 -5 -5 -5 -5 -5 -5 -5 -5 -5 -5 -5 -5 -5 -5 -5 -5 -5 -5 -5 -5 -4 -4 -4 -4 -4 -4 -4 -4 -4 -4 -4 -4 -4 -4 -5 -5 -5 -5 -4
-5 -5 -5 -6 -6 -6 -6 -6 -6 -6 -6 -6 -6 -6 -6 -5 -5 -5 -6 -6 -6 -6 -5 -5 -5 -5 -5 -5 -5 -5 -5 -5 -5 -5 -5 -5 -5 -5 -5 -5 -5 -5 -6
-6 -6 -6 -6 -7 -7 -7 -7 -7 -7 -7 -7 -7 -7 -6 -6 -6 -6 -6 -6 -6 -6 -6 -6 -6 -6 -6 -6 -6 -6 -6 -6 -6 -6 -6 -6 -6 -6 -6 -6 -6 -6 -6
-7 -7 -7 -7 -7 -7 -7 -8 -8 -8 -8 -8 -8 -7 -7 -7 -7 -7 -7 -7 -7 -7 -6 -6 -6 -6 -6 -6 -6 -6 -7 -7 -7 -7 -7 -6 -6 -6 -6 -6 -7 -7 -7
-8 -8 -8 -8 -8 -8 -8 -8 -8 -8 -9 -8 -8 -8 -8 -8 -8 -7 -7 -7 -7 -7 -7 -7 -7 -7 -7 -7 -7 -7 -7 -7 -7 -7 -7 -7 -7 -7 -7 -7 -7 -7 -7
-8 -9 -9 -9 -9 -9 -9 -9 -9 -9 -9 -9 -9 -9 -9 -9 -8 -8 -8 -8 -8 -8 -8 -8 -8 -8 -8 -8 -8 -8 -8 -8 -8 -8 -8 -8 -8 -8 -8 -8 -8 -8 -8
-9 -9 -9 -10 -10 -10 -10 -10 -10 -10 -10 -10 -10 -9 -9 -9 -9 -9 -9 -9 -9 -9 -9 -9 -9 -8 -8 -8 -8 -8 -8 -8 -8 -8 -9 -9 -9 -9 -9 -9 -9 -9 -9
-10 -10 -10 -10 -10 -10 -10 -10 -11 -10 -10 -10 -10 -10 -10 -10 -10 -9 -9 -9 -9 -9 -9 -9 -9 -9 -9 -9 -9 -9 -9 -9 -9 -9 -9 -9 -9 -9 -9 -9 -9 -9 -9
-11 -11 -11 -11 -11 -11 -11 -11 -11 -11 -11 -11 -11 -11 -11 -10 -10 -10 -10 -10 -10 -10 -10 -10 -10 -10 -10 -10 -10 -10 -10 -10 -10 -10 -10 -10 -10 -10 -10 -10 -10 -10 -10
-11 -11 -11 -11 -12 -12 -12 -12 -12 -12 -12 -11 -11 -11 -11 -11 -11 -11 -11 -11 -11 -11 -11 -11 -11 -11 -11 -11 -11 -10 -10 -10 -10 -10 -10 -10 -11 -11 -11 -11 -11 -11 -10
-12 -12 -12 -12 -12 -12 -13 -13 -13 -13 -12 -12 -12 -12 -12 -12 -12 -12 -12 -11 -11 -11 -11 -11 -11 -11 -11 -11 -11 -11 -11 -11 -11 -11 -11 -11 -11 -11 -11 -11 -11 -11 -11
-12 -13 -13 -13 -13 -13 -13 -13 -13 -13 -13 -13 -13 -12 -12 -12 -12 -12 -12 -12 -12 -12 -12 -12 -12 -12 -12 -12 -12 -12 -12 -11 -11 -11 -11 -11 -12 -12 -12 -12 -12 -12 -11
-13 -13 -13 -13 -13 -14 -14 -14 -14 -14 -14 -13 -13 -13 -13 -13 -13 -13 -13 -13 -13 -13 -13 -13 -12 -12 -12 -12 -12 -12 -12 -12 -12 -12 -12 -12 -12 -12 -12 -12 -12 -12 -12
-14 -14 -14 -14 -14 -14 -14 -14 -14 -14 -14 -14 -14 -14 -14 -14 -14 -14 -14 -13 -13 -13 -13 -13 -13 -13 -13 -13 -13 -13 -12 -12 -12 -12 -12 -12 -12 -12 -13 -12 -12 -12 -12
-14 -14 -14 -14 -14 -14 -14 -14 -14 -14 -14 -14 -14 -14 -14 -14 -14 -14 -14 -14 -14 -14 -14 -14 -13 -13 -13 -13 -13 -13 -13 -13 -13 -13 -13 -13 -13 -13 -13 -13 -13 -13 -13
-14 -14 -15 -15 -15 -15 -15 -15 -15 -15 -14 -14 -14 -15 -15 -15 -14 -14 -14 -14 -14 -14 -14 -14 -14 -14 -13 -13 -13 -13 -13 -13 -13 -13 -13 -13 -13 -13 -13 -13 -13 -13 -13
-15 -15 -15 -15 -15 -15 -15 -15 -15 -15 -15 -15 -15 -15 -15 -15 -15 -15 -14 -14 -14 -14 -14 -14 -14 -14 -14 -14 -13 -13 -13 -13 -13 -13 -13 -13 -13 -13 -13 -13 -13 -13 -13
-15 -15 -15 -15 -15 -15 -15 -15 -15 -15 -15 -15 -15 -15 -15 -15 -15 -15 -15 -15 -14 -14 -14 -14 -14 -14 -14 -14 -14 -14 -14 -13 -13 -14 -14 -14 -14 -14 -14 -14 -14 -14 -14
Wind_Speed
3 3 3 3 3 3 3 3 3 3 3 4 4 3 3 3 3 3 2 2 2 2 2 2 2 1 1 1 1 1 1 2 3 3 2 1 1 1 2 2 3 2 3
3 2 3 3 3 3 3 3 3 3 3 4 4 4 4 4 4 4 4 4 3 3 2 2 2 2 2 2 1 1 1 2 3 3 2 1 2 2 1 2 2 2 2
2 2 3 3 3 4 4 3 3 3 3 3 3 4 4 4 5 5 5 5 4 4 3 4 3 3 3 2 2 2 2 1 2 3 3 2 2 1 1 2 2 2 2
2 2 3 4 4 4 3 3 3 3 3 3 3 4 4 4 4 5 5 5 4 4 4 4 4 4 5 4 3 3 2 2 1 2 3 2 2 2 1 1 2 2 2
2 2 3 4 3 3 3 3 3 3 3 3 3 3 3 3 4 4 5 5 5 5 4 4 5 6 6 5 4 4 3 3 2 2 3 3 2 2 2 2 2 2 3
3 3 3 3 3 3 3 3 3 3 3 3 3 3 4 4 5 6 4 3 4 5 5 4 5 5 6 6 6 6 5 5 4 4 4 4 4 3 2 2 2 2 2
3 3 3 3 3 3 3 3 3 4 3 3 3 4 4 5 7 7 6 3 4 4 4 4 4 4 5 3 4 4 5 7 7 6 6 6 5 4 3 3 3 3 4
3 3 3 3 3 3 3 3 3 3 3 4 4 4 4 5 7 7 6 3 3 4 4 5 5 5 5 5 3 3 3 4 5 5 5 6 5 5 5 4 3 3 3
3 3 3 3 3 3 3 4 3 3 3 4 4 3 4 5 7 7 6 3 3 4 4 4 5 5 7 7 4 4 4 4 5 6 7 7 7 7 6 3 3 3 3
4 4 3 3 3 4 4 3 3 3 3 3 3 3 4 5 6 7 6 2 3 3 3 4 6 6 7 7 5 5 5 5 4 3 4 4 4 4 6 4 4 4 3
4 3 3 3 3 3 3 2 2 2 2 2 3 3 3 4 5 6 6 3 3 3 3 3 4 6 7 8 6 5 6 5 3 3 2 2 2 3 3 4 4 4 4
3 3 3 3 3 2 2 2 2 2 2 2 2 3 2 3 4 5 6 6 5 3 3 3 3 6 7 7 5 5 6 4 2 2 2 3 3 3 3 3 4 4 5
2 3 3 3 3 2 2 2 2 1 2 2 2 3 3 2 3 6 6 6 6 3 2 4 5 6 5 4 3 4 3 2 2 2 3 3 2 2 2 2 2 2 3
2 3 3 2 3 2 2 2 2 2 2 3 3 3 3 2 2 3 3 3 4 3 2 3 4 4 3 2 2 1 1 2 2 2 2 2 2 2 2 2 3 2 3
2 2 2 2 2 2 2 2 3 3 4 4 3 3 3 3 4 6 4 3 2 3 1 1 1 1 1 1 1 1 1 2 2 2 2 2 2 2 3 2 2 2 3
2 2 2 2 2 2 2 3 5 4 5 6 5 5 4 5 6 6 6 5 5 3 1 1 2 2 2 2 2 2 2 2 2 2 2 2 2 3 3 3 3 3 4
2 2 2 2 2 2 2 2 3 4 5 5 5 5 5 5 5 5 5 4 4 2 1 1 2 2 2 2 2 2 2 2 2 2 3 3 3 3 3 3 3 4 4
2 3 2 2 2 2 2 2 3 3 3 3 5 6 6 6 5 5 4 2 1 1 1 2 2 2 2 2 2 2 2 2 2 2 3 3 3 3 3 3 3 4 4
2 2 2 2 2 2 2 2 3 3 3 3 3 4 6 6 5 5 3 1 1 2 2 2 2 2 2 2 2 2 2 3 3 3 3 3 3 3 3 3 3 5 4
2 3 3 2 1 2 2 2 2 3 3 3 3 3 3 3 2 2 2 1 1 2 2 2 2 2 2 2 2 2 2 2 3 3 3 3 3 3 3 4 4 4 4
2 2 4 3 2 2 2 2 3 2 3 3 3 4 6 2 2 2 2 2 2 2 2 2 2 2 2 2 2 3 3 3 3 3 3 3 3 3 3 4 4 4 4
1 1 2 2 2 2 2 2 2 2 3 4 4 4 6 3 2 3 3 3 2 2 2 2 3 3 3 3 3 3 4 4 4 3 4 4 3 3 3 4 4 4 4
1 1 2 2 2 3 3 2 2 3 3 3 4 4 3 3 3 3 3 3 2 2 3 3 3 3 3 4 4 4 5 5 5 4 4 4 4 4 4 4 5 5 4
1 1 2 2 2 2 2 2 2 3 3 3 3 3 3 3 3 4 4 3 3 3 4 4 4 5 5 5 5 6 7 8 7 7 6 5 5 4 4 4 5 5 5
1 1 2 1 2 2 2 3 3 3 3 3 3 3 3 3 4 4 4 3 4 4 5 5 5 5 6 7 7 7 9 10 9 8 7 6 5 5 5 5 5 5 5
1 1 1 1 1 2 2 3 3 3 3 3 3 3 4 4 4 4 4 4 4 4 5 5 6 7 8 8 9 10 11 11 11 10 7 5 5 5 5 5 5 5 5
Wind_Direction
226 227 235 239 239 236 234 244 244 243 234 229 230 229 229 225 220 204 212 205 208 223 226 208 215 205 199 230 205 183 189 191 225 267 278 282 256 284 312 305 288 283 285
224 230 239 243 237 234 242 247 250 244 245 236 231 232 233 226 219 210 212 213 213 219 226 222 229 213 198 210 206 212 216 213 212 247 275 272 267 243 260 292 313 291 281
219 222 243 247 241 240 244 245 245 241 248 251 236 235 241 234 223 221 217 216 217 222 221 221 227 214 216 218 209 215 229 247 225 220 252 255 256 250 284 303 316 306 286
229 221 239 249 247 244 247 245 239 240 235 241 243 243 247 239 232 230 223 216 217 225 227 226 226 221 218 216 218 215 215 232 234 225 241 239 246 245 231 264 302 307 297
238 240 251 261 257 250 250 253 246 244 245 244 246 251 252 242 234 236 234 223 221 228 234 234 235 235 235 225 226 215 207 213 223 237 246 251 247 230 234 242 269 294 297
235 248 262 261 255 250 250 255 251 244 245 242 241 249 247 248 252 249 248 234 232 234 240 246 247 241 246 245 244 237 221 211 216 232 247 242 247 247 246 244 252 273 275
253 255 257 254 255 255 257 254 252 245 236 238 245 245 243 254 259 252 248 244 238 240 239 242 250 246 241 231 246 255 253 248 234 223 233 240 239 234 230 243 246 249 254
264 265 259 253 256 256 250 249 254 253 240 239 248 237 241 256 263 261 259 249 240 243 244 243 242 237 232 225 225 235 250 255 253 239 229 235 237 226 219 232 244 265 280
274 271 268 255 254 253 251 253 251 250 255 251 245 235 241 259 266 264 264 247 241 247 251 248 246 237 240 239 227 229 244 259 267 262 255 250 250 247 230 215 230 244 270
285 283 279 263 250 251 252 253 252 253 255 254 263 249 244 251 263 262 263 247 247 253 258 256 255 249 245 242 226 218 235 244 240 253 262 262 254 249 246 222 213 228 249
294 300 295 283 268 256 255 251 243 250 253 249 258 265 255 258 267 268 264 252 244 247 249 250 253 263 259 253 245 227 236 244 232 227 238 247 244 234 232 229 221 223 231
302 306 306 304 298 291 264 263 247 229 243 249 253 269 269 270 278 274 269 267 267 244 244 244 248 263 267 259 251 241 245 252 215 214 227 238 240 242 233 230 237 238 241
305 304 307 310 308 305 284 275 267 241 238 253 246 261 274 278 280 280 276 273 275 270 248 249 256 262 266 257 251 250 244 223 211 226 238 250 249 234 221 225 231 235 252
296 301 306 312 318 320 307 289 276 254 248 250 252 257 268 274 273 268 262 264 268 279 275 267 268 270 276 263 251 254 259 228 221 228 238 245 250 242 240 241 251 248 261
296 299 304 306 302 313 314 299 287 262 253 256 247 244 247 257 263 270 272 264 246 242 256 261 215 207 231 228 229 231 234 233 239 235 232 245 254 257 258 247 249 254 252
290 298 297 302 304 308 311 320 319 308 300 294 287 282 275 276 284 281 281 281 282 269 233 179 215 218 221 224 222 225 225 231 232 230 229 236 249 256 261 260 254 247 250
255 275 282 291 295 299 301 305 314 324 320 312 306 295 289 287 287 289 291 292 286 272 201 199 218 226 229 228 227 229 230 234 235 232 238 239 244 253 254 250 249 249 251
262 276 285 269 279 287 292 295 296 303 315 319 320 313 310 303 301 304 309 323 297 286 231 227 234 237 233 226 228 233 240 234 231 233 237 240 240 244 250 251 250 250 252
270 267 267 265 274 285 293 298 300 300 302 306 312 319 323 322 320 317 328 319 245 252 249 244 240 238 240 236 236 234 234 236 234 235 241 245 242 239 248 257 262 267 267
271 289 301 292 285 290 294 295 295 297 300 301 302 306 312 315 309 309 308 288 268 262 257 252 250 243 242 238 240 238 238 241 240 239 242 244 244 239 243 250 253 259 265
270 285 302 304 288 284 286 284 287 290 295 298 297 298 303 303 291 288 285 281 269 266 267 263 259 251 247 241 239 238 237 239 242 242 242 243 239 241 245 249 252 255 261
261 270 277 279 286 286 288 292 294 293 296 297 302 305 308 312 293 287 283 279 274 265 254 255 258 251 239 231 228 234 239 240 240 242 241 241 238 240 245 248 250 254 255
260 272 281 281 279 290 303 298 292 289 291 296 301 304 302 298 293 287 283 282 275 266 263 255 253 255 252 243 235 225 230 237 235 231 233 235 236 239 241 243 246 252 254
254 259 266 277 279 277 284 288 290 290 292 294 294 296 297 296 293 289 285 279 272 268 263 257 254 252 253 254 249 244 242 243 239 232 225 222 229 239 242 243 246 248 251
282 279 276 270 276 283 287 286 285 288 291 292 293 294 294 294 294 292 286 279 271 268 268 266 261 258 256 255 256 255 257 257 253 240 224 219 226 232 238 243 249 252 251
319 301 290 278 274 276 278 282 286 288 289 291 291 290 288 288 288 287 285 282 281 279 276 271 262 259 260 260 259 260 262 259 254 253 241 222 222 232 236 244 245 248 247
Height
1488 1489 1489 1489 1490 1490 1490 1490 1490 1490 1490 1490 1491 1491 1491 1491 1491 1490 1490 1491 1492 1492 1493 1494 1494 1495 1496 1497 1497 1497 1498 1499 1498 1499 1500 1500 1501 1501 1502 1502 1503 1503 1504
1485 1485 1485 1485 1485 1485 1485 1485 1485 1485 1486 1486 1486 1486 1486 1487 1487 1486 1487 1487 1487 1488 1489 1489 1490 1491 1491 1492 1493 1493 1494 1495 1495 1495 1495 1496 1497 1497 1498 1498 1498 1499 1499
1481 1481 1481 1481 1481 1480 1480 1481 1481 1481 1481 1481 1482 1482 1482 1482 1482 1482 1483 1483 1483 1484 1485 1485 1486 1487 1487 1488 1488 1489 1490 1491 1492 1491 1491 1492 1492 1493 1493 1494 1494 1494 1495
1477 1477 1477 1477 1476 1476 1476 1476 1476 1476 1476 1477 1477 1477 1478 1478 1477 1478 1478 1478 1479 1479 1480 1481 1481 1482 1483 1483 1484 1485 1486 1486 1487 1487 1487 1487 1488 1488 1489 1489 1489 1490 1490
1473 1473 1472 1472 1472 1472 1471 1471 1471 1472 1472 1472 1472 1472 1473 1473 1473 1473 1473 1473 1474 1474 1475 1476 1476 1477 1478 1478 1479 1480 1480 1481 1482 1482 1482 1483 1483 1483 1484 1484 1485 1485 1485
1469 1468 1468 1468 1467 1467 1467 1467 1467 1467 1467 1467 1467 1467 1467 1468 1468 1468 1469 1468 1468 1469 1469 1470 1471 1472 1472 1473 1474 1475 1476 1476 1477 1478 1478 1478 1478 1479 1480 1480 1480 1480 1480
1465 1464 1463 1463 1462 1462 1462 1462 1461 1461 1461 1462 1462 1462 1462 1463 1464 1464 1464 1464 1464 1464 1464 1465 1465 1466 1467 1468 1469 1470 1471 1472 1473 1474 1473 1473 1474 1474 1475 1475 1476 1476 1476
1460 1459 1458 1458 1457 1457 1457 1456 1456 1456 1456 1456 1457 1457 1457 1458 1459 1459 1460 1459 1459 1459 1460 1460 1461 1461 1462 1463 1463 1464 1465 1466 1467 1468 1469 1469 1470 1470 1471 1471 1471 1471 1472
1456 1455 1454 1453 1452 1452 1451 1451 1451 1451 1451 1451 1451 1452 1452 1453 1454 1454 1455 1454 1454 1454 1455 1455 1456 1456 1457 1458 1458 1459 1460 1461 1462 1463 1464 1464 1465 1465 1466 1466 1466 1466 1466
1452 1451 1450 1449 1448 1447 1446 1446 1446 1446 1446 1446 1446 1447 1448 1448 1449 1449 1450 1450 1450 1450 1450 1451 1452 1452 1452 1453 1454 1454 1455 1456 1457 1457 1458 1459 1459 1460 1460 1461 1461 1462 1461
1448 1447 1446 1445 1444 1443 1442 1442 1442 1442 1441 1442 1442 1442 1443 1443 1444 1445 1445 1446 1445 1445 1445 1445 1446 1447 1447 1448 1449 1450 1450 1451 1452 1452 1453 1453 1454 1454 1455 1456 1456 1457 1457
1445 1443 1442 1441 1440 1439 1438 1438 1438 1437 1437 1437 1438 1438 1439 1439 1440 1440 1441 1441 1441 1441 1441 1441 1441 1442 1443 1443 1444 1445 1446 1447 1447 1447 1447 1448 1448 1449 1450 1450 1451 1452 1452
1441 1439 1438 1437 1436 1435 1435 1434 1433 1433 1433 1433 1433 1433 1434 1435 1435 1436 1436 1437 1437 1437 1436 1437 1437 1438 1438 1439 1440 1441 1441 1442 1442 1442 1442 1443 1443 1444 1445 1445 1446 1447 1447
1437 1436 1434 1433 1432 1432 1431 1431 1430 1430 1430 1430 1430 1430 1430 1431 1431 1432 1432 1432 1432 1432 1432 1432 1433 1434 1434 1435 1435 1436 1437 1437 1438 1438 1438 1438 1439 1439 1440 1440 1441 1441 1441
1434 1433 1431 1431 1429 1428 1428 1428 1428 1428 1428 1427 1427 1427 1427 1427 1427 1428 1429 1428 1428 1428 1428 1428 1428 1429 1430 1430 1431 1431 1432 1433 1433 1433 1433 1433 1434 1434 1435 1435 1436 1436 1436
1431 1430 1429 1428 1427 1426 1425 1425 1425 1425 1425 1424 1424 1425 1424 1424 1425 1425 1425 1425 1425 1425 1425 1424 1425 1425 1425 1426 1426 1427 1428 1428 1428 1429 1429 1429 1429 1429 1430 1430 1431 1431 1431
1428 1427 1426 1425 1425 1424 1423 1422 1421 1421 1421 1421 1421 1421 1421 1421 1421 1421 1421 1421 1421 1421 1421 1421 1421 1421 1422 1422 1422 1423 1423 1424 1424 1425 1425 1425 1425 1425 1425 1426 1426 1426 1427
1425 1425 1424 1423 1422 1422 1421 1420 1419 1418 1417 1417 1418 1417 1417 1417 1417 1417 1417 1417 1417 1417 1417 1417 1417 1417 1418 1418 1418 1418 1419 1419 1420 1420 1421 1421 1421 1421 1421 1421 1422 1422 1422
1422 1422 1421 1420 1420 1419 1418 1418 1417 1416 1415 1414 1414 1414 1414 1414 1414 1414 1413 1413 1413 1413 1413 1413 1413 1413 1414 1414 1414 1415 1415 1415 1415 1416 1416 1417 1417 1417 1417 1417 1418 1418 1418
1420 1419 1419 1418 1417 1417 1416 1415 1414 1414 1413 1412 1411 1411 1411 1410 1410 1410 1410 1410 1410 1409 1409 1409 1409 1410 1410 1410 1410 1410 1411 1411 1411 1411 1412 1412 1413 1413 1413 1413 1414 1413 1413
1417 1416 1416 1415 1415 1414 1413 1413 1412 1411 1410 1410 1409 1409 1408 1408 1407 1407 1406 1406 1406 1406 1405 1405 1405 1405 1405 1406 1406 1406 1407 1407 1407 1407 1408 1408 1408 1409 1409 1409 1409 1409 1409
1414 1414 1413 1412 1412 1412 1411 1410 1410 1409 1408 1407 1406 1406 1405 1404 1404 1403 1403 1402 1402 1402 1402 1401 1401 1401 1402 1402 1402 1402 1402 1402 1403 1403 1403 1404 1404 1404 1405 1405 1405 1405 1405
1412 1411 1410 1410 1409 1409 1409 1408 1407 1406 1405 1404 1403 1402 1402 1401 1400 1399 1399 1399 1398 1398 1398 1397 1397 1397 1398 1398 1398 1398 1398 1398 1398 1399 1399 1399 1399 1400 1400 1400 1400 1400 1400
1409 1409 1408 1407 1407 1406 1405 1405 1404 1403 1402 1401 1400 1399 1398 1398 1397 1396 1395 1395 1395 1394 1394 1393 1393 1393 1393 1393 1393 1393 1393 1394 1394 1394 1395 1395 1395 1395 1395 1396 1396 1396 1396
1407 1406 1406 1405 1404 1403 1403 1402 1401 1400 1399 1398 1397 1396 1395 1394 1393 1393 1392 1391 1391 1390 1390 1389 1389 1389 1389 1389 1389 1389 1389 1389 1389 1390 1390 1390 1390 1391 1391 1391 1391 1391 1391
1405 1404 1403 1402 1402 1401 1400 1399 1398 1397 1396 1395 1394 1393 1392 1391 1390 1389 1388 1387 1387 1386 1385 1385 1385 1384 1384 1384 1384 1384 1384 1384 1384 1385 1385 1386 1386 1386 1386 1386 1386 1386 1386